Location: Newcastle Observatory
(43.9158°N, 78.5831°W)
Time: 09:39:58
(UTC-04:00)

Amateur Radio Satellites - All Passes

Search period start: 01 May 2016 09:09
Search period end: 02 May 2016 09:09
Location: Newcastle Observatory, 43.9158°N, 78.5831°W

Satellite Date Start Highest point End Downlink Frequencies (MHz)
Time Altitude Azimuth
M-CUBED/EXP-1 PRIME 01 May 09:10:50 09:14:34 35° 296° (WNW) 09:18:01 437.505
CANX-2 01 May 09:15:50 09:20:02 64° 100° (E) 09:24:13 2200.000
UNISAT 6 01 May 09:16:11 09:17:53 12° 60° (ENE) 09:19:34 437.425
STRAND 1 01 May 09:17:45 09:19:29 12° 272° (W) 09:21:13 437.568
PRISM 01 May 09:20:37 09:24:16 32° 263° (W) 09:27:57 437.425
GOMX 1 01 May 09:20:51 09:25:24 27° 295° (WNW) 09:29:50 467.674
AAUSAT CUBESAT 2 01 May 09:24:06 09:27:43 29° 96° (E) 09:31:20 437.432
DOVE 4 01 May 09:26:08 09:31:00 41° 291° (WNW) 09:35:38 437.250
Oscar 11 01 May 09:28:42 09:30:57 14° 90° (E) 09:33:11 145.826/435.025
AUBIESAT-1 01 May 09:31:27 09:34:48 26° 299° (WNW) 09:37:57 437.475
TIGRISAT 01 May 09:33:00 09:35:54 17° 63° (ENE) 09:38:46 435.000
HO-68 01 May 09:36:03 09:43:14 77° 105° (ESE) 09:50:24 435.675
FUNcube-1 01 May 09:37:42 09:39:49 14° 90° (E) 09:41:56 145.935
BRITE-PL 01 May 09:39:11 09:41:28 13° 304° (NW) 09:43:46 437.365/2234.400
UWE-3 01 May 09:42:56 09:46:28 24° 94° (E) 09:49:54 435.000/436.395/437.385
Cubesat XI-IV 01 May 09:46:04 09:47:20 11° 306° (NW) 09:48:37 437.490
CUBEBUG 2 01 May 09:46:07 09:50:12 38° 97° (E) 09:54:09 437.445
CUTE 1.7 + AOD 2 01 May 09:49:03 09:53:14 63° 285° (WNW) 09:57:23 437.475
Cosmos 2491 01 May 09:54:51 10:01:03 21° 300° (WNW) 10:07:19 435.465 / 435.565
ANTELSAT 01 May 09:55:51 09:59:47 28° 67° (ENE) 10:03:42 437.575/2403.000
Cosmos 2504 01 May 09:57:12 10:03:10 26° 277° (W) 10:09:25 435.465 / 435.565
RS-15 01 May 10:08:57 10:17:07 21° 262° (W) 10:25:17 29.354- 29.394
ZACube-1 01 May 10:17:31 10:21:30 39° 97° (E) 10:25:23 437.345
SEEDS 01 May 10:19:55 10:23:48 39° 289° (WNW) 10:27:43 437.485
POPSAT HIP 1 01 May 10:21:54 10:22:37 10° 59° (ENE) 10:23:19 437.405
CINEMA 3 01 May 10:23:29 10:27:37 31° 293° (WNW) 10:31:33 145.822/145.860
QB50P1 01 May 10:24:37 10:25:59 11° 60° (ENE) 10:27:21 145.935-145.965
SO-50 01 May 10:26:04 10:29:07 16° 326° (NNW) 10:32:12 436.795
COMPASS 1 01 May 10:26:36 10:30:35 45° 288° (WNW) 10:34:33 437.405
ISS 01 May 10:40:30 10:43:20 26° 345° (NNW) 10:46:11 145.825
UNISAT 6 01 May 10:49:15 10:53:56 87° 259° (W) 10:58:33 437.425
DELFI C3 01 May 10:52:23 10:56:18 54° 100° (E) 11:00:13 145.870
CANX-2 01 May 10:53:22 10:55:23 13° 298° (WNW) 10:57:24 2200.000
NANOSAT C BR1 01 May 10:58:07 11:01:32 24° 66° (ENE) 11:04:57 145.865
GONETS M04 01 May 10:58:36 11:05:38 26° 64° (ENE) 11:12:34
AAUSAT CUBESAT 2 01 May 10:59:42 11:03:07 25° 292° (WNW) 11:06:31 437.432
PHONESAT 2.4 01 May 11:03:05 11:04:56 15° 154° (SSE) 11:06:48 2401.200-2431.200
Oscar 11 01 May 11:03:13 11:07:27 56° 287° (WNW) 11:11:39 145.826/435.025
BUGSAT 1 01 May 11:06:40 11:08:58 14° 62° (ENE) 11:11:16 437.445
TIGRISAT 01 May 11:07:31 11:12:08 60° 259° (W) 11:16:42 435.000
FUNcube-1 01 May 11:12:19 11:16:27 54° 287° (WNW) 11:20:29 145.935
UWE-3 01 May 11:19:12 11:22:58 30° 291° (WNW) 11:26:37 435.000/436.395/437.385
CUBEBUG 2 01 May 11:23:18 11:26:34 21° 295° (WNW) 11:29:46 437.445
HO-68 01 May 11:24:49 11:30:15 24° 304° (NW) 11:35:40 435.675
ANTELSAT 01 May 11:32:12 11:36:24 32° 264° (W) 11:40:33 437.575/2403.000
HUMSAT D 01 May 11:36:19 11:40:25 76° 102° (ESE) 11:44:29 437.325/437.525
CUBEBUG 1 01 May 11:45:38 11:47:49 13° 90° (E) 11:50:01 437.445
QB50P2 01 May 11:48:11 11:52:29 87° 76° (ENE) 11:56:49 145.880/145.840
AIST 1 01 May 11:48:48 11:52:56 39° 76° (ENE) 11:57:04
POLYITAN 1 01 May 11:50:19 11:54:37 88° 71° (ENE) 11:58:57 437.675
DUCHIFAT 1 01 May 11:50:21 11:54:37 79° 74° (ENE) 11:58:54 145.980
POPSAT HIP 1 01 May 11:53:24 11:57:42 88° 253° (WSW) 12:02:02 437.405
ZACube-1 01 May 11:54:28 11:57:32 20° 295° (WNW) 12:00:33 437.345
QB50P1 01 May 11:56:50 12:01:08 80° 257° (WSW) 12:05:26 145.935-145.965
JAS-2 01 May 11:58:49 12:03:13 21° 55° (NE) 12:07:58 435.910
VELOX 1 01 May 12:07:08 12:10:42 23° 94° (E) 12:14:13 145.980
DX 1 01 May 12:10:16 12:13:40 21° 94° (E) 12:17:02 434.975-435.025
Cosmos 2499 01 May 12:14:20 12:21:22 38° 72° (ENE) 12:28:52 435.465 / 435.565
ISS 01 May 12:17:56 12:20:31 21° 5° (N) 12:23:06 145.825
UKube-1 01 May 12:19:59 12:23:23 22° 94° (E) 12:26:47 .
AO-85 01 May 12:26:05 12:29:03 15° 107° (ESE) 12:32:01 145.980
DELFI C3 01 May 12:28:45 12:30:45 14° 297° (WNW) 12:32:45 145.870
NANOSAT C BR1 01 May 12:33:13 12:37:06 33° 263° (W) 12:41:00 145.865
PHONESAT 2.4 01 May 12:38:23 12:41:19 37° 170° (S) 12:44:17 2401.200-2431.200
AISAT 01 May 12:38:24 12:42:48 50° 100° (E) 12:47:08 437.250
50 SAT 01 May 12:39:02 12:42:39 58° 100° (E) 12:46:15 437.505
BUGSAT 1 01 May 12:39:40 12:43:51 60° 259° (W) 12:48:04 437.445
ESTCUBE 1 01 May 12:49:52 12:54:25 88° 106° (ESE) 12:58:58 437.505/2401.250
Oscar 19 01 May 12:52:08 12:56:32 29° 65° (ENE) 13:00:57 437.125/150
SPROUT 01 May 12:52:55 12:56:34 26° 95° (E) 13:00:10 437.525
GONETS M04 01 May 12:54:38 13:03:24 76° 266° (W) 13:12:03
HUMSAT D 01 May 13:14:27 13:15:27 11° 299° (WNW) 13:16:26 437.325/437.525
CUBEBUG 1 01 May 13:20:07 13:24:31 62° 287° (WNW) 13:28:54 437.445
AIST 1 01 May 13:27:06 13:30:15 19° 273° (W) 13:33:24
TISAT 1 01 May 13:33:33 13:36:51 22° 94° (E) 13:40:06 437.305
JAS-2 01 May 13:41:29 13:47:22 77° 257° (WSW) 13:54:09 435.910
VELOX 1 01 May 13:43:08 13:47:16 37° 291° (WNW) 13:51:21 145.980
DX 1 01 May 13:45:54 13:49:59 38° 291° (WNW) 13:54:01 434.975-435.025
ISS 01 May 13:54:21 13:57:32 47° 25° (NNE) 14:00:43 145.825
UKube-1 01 May 13:55:33 13:59:32 36° 291° (WNW) 14:03:29 .
AO-85 01 May 14:03:24 14:08:53 88° 304° (WNW) 14:14:19 145.980
ITAMSAT 1 01 May 14:07:15 14:11:26 26° 64° (ENE) 14:15:40 435.822/435.867
Cosmos 2499 01 May 14:07:22 14:14:34 46° 270° (W) 14:22:17 435.465 / 435.565
Gurwin Techsat 1B 01 May 14:11:35 14:16:48 62° 72° (ENE) 14:22:04 435.225
50 SAT 01 May 14:14:55 14:15:58 11° 297° (WNW) 14:17:01 437.505
PHONESAT 2.4 01 May 14:14:56 14:17:57 41° 186° (S) 14:20:57 2401.200-2431.200
ITUPSAT 1 01 May 14:15:41 14:17:26 12° 89° (E) 14:19:11 437.325
AISAT 01 May 14:15:51 14:18:53 18° 297° (WNW) 14:21:55 437.250
AO-7 01 May 14:23:12 14:29:52 28° 53° (NE) 14:36:32 29.400- 29.500
SWISSCUBE 01 May 14:24:53 14:27:59 17° 91° (E) 14:31:05 437.505
SPROUT 01 May 14:28:45 14:32:30 29° 292° (WNW) 14:36:12 437.525
ESTCUBE 1 01 May 14:29:08 14:30:32 11° 301° (WNW) 14:31:56 437.505/2401.250
Oscar 19 01 May 14:30:54 14:35:42 38° 262° (W) 14:40:33 437.125/150
GONETS M04 01 May 14:54:14 14:58:35 15° 286° (WNW) 15:02:56
BEESAT 01 May 14:57:26 15:01:42 32° 97° (E) 15:05:56 436.000
TISAT 1 01 May 15:08:44 15:12:35 35° 291° (WNW) 15:16:25 437.305
ISS 01 May 15:31:04 15:33:52 26° 223° (SW) 15:36:39 145.825
JAS-2 01 May 15:32:00 15:33:50 11° 279° (W) 15:35:44 435.910
O/OREOS (USA 219) 01 May 15:32:12 15:36:39 52° 108° (ESE) 15:41:07 437.305
SO-50 01 May 15:33:23 15:37:16 24° 40° (NE) 15:41:04 436.795
ITAMSAT 1 01 May 15:45:45 15:50:41 44° 261° (W) 15:55:38 435.822/435.867
AO-85 01 May 15:46:05 15:50:08 21° 323° (NW) 15:54:05 145.980
ITUPSAT 1 01 May 15:51:03 15:55:50 78° 286° (WNW) 16:00:36 437.325
KKS-1 01 May 15:51:56 15:54:32 15° 91° (E) 15:57:06 437.445
PHONESAT 2.4 01 May 15:52:04 15:54:24 19° 203° (SSW) 15:56:45 2401.200-2431.200
Gurwin Techsat 1B 01 May 15:53:36 15:57:11 18° 269° (W) 16:00:47 435.225
SWISSCUBE 01 May 16:01:28 16:06:08 55° 288° (WNW) 16:10:46 437.505
CUSAT 1 01 May 16:06:36 16:09:57 84° 103° (ESE) 16:14:24 437.405
Cosmos 2491 01 May 16:10:22 16:11:58 11° 49° (NE) 16:13:35 435.465 / 435.565
STARS 01 May 16:13:20 16:15:21 13° 90° (E) 16:17:22 437.465
AO-7 01 May 16:13:37 16:21:53 76° 253° (WSW) 16:30:14 29.400- 29.500
PCSat 01 May 16:17:37 16:22:46 47° 114° (ESE) 16:27:59 145.827
HORYU 2 01 May 16:17:45 16:21:39 30° 67° (ENE) 16:25:33 437.375
BEESAT 01 May 16:35:17 16:39:25 30° 293° (WNW) 16:43:31 436.000
DANDE 01 May 16:35:59 16:38:46 61° 97° (E) 16:42:12 436.750
NOAA 18 01 May 17:04:27 17:08:19 20° 59° (ENE) 17:12:11 137.9125
CUTE-I 01 May 17:05:42 17:08:26 14° 57° (ENE) 17:11:10 437.470
O/OREOS (USA 219) 01 May 17:12:59 17:16:23 20° 307° (NW) 17:19:46 437.305
SO-50 01 May 17:13:28 17:18:06 56° 240° (WSW) 17:22:34 436.795
MOZHAYETS 4 01 May 17:19:02 17:23:37 79° 102° (ESE) 17:28:12
CUBESAT XI-V 01 May 17:25:33 17:26:49 11° 88° (E) 17:28:04 437.345
KKS-1 01 May 17:27:03 17:31:27 56° 288° (WNW) 17:35:48 437.445
ITUPSAT 1 01 May 17:32:02 17:32:52 10° 303° (WNW) 17:33:41 437.325
BRITE-PL 01 May 17:33:39 17:37:11 20° 61° (ENE) 17:40:54 437.365/2234.400
Cubesat XI-IV 01 May 17:47:16 17:51:54 31° 65° (ENE) 17:56:32 437.490
STARS 01 May 17:47:45 17:52:09 64° 286° (WNW) 17:56:29 437.465
NOAA 15 01 May 17:50:10 17:55:12 48° 69° (ENE) 18:00:17 137.62
HORYU 2 01 May 17:54:19 17:58:11 28° 264° (W) 18:02:03 437.375
PCSat 01 May 18:01:37 18:06:22 30° 313° (NW) 18:11:10 145.827
Cosmos 2491 01 May 18:02:52 18:11:26 51° 74° (ENE) 18:19:53 435.465 / 435.565
AO-7 01 May 18:11:37 18:15:59 15° 273° (W) 18:20:23 29.400- 29.500
YUBILEINY 01 May 18:18:49 18:25:27 25° 80° (E) 18:32:03 435.215
HO-68 01 May 18:22:42 18:26:16 15° 49° (NE) 18:29:50 435.675
M-CUBED/EXP-1 PRIME 01 May 18:23:14 18:27:35 37° 64° (ENE) 18:31:51 437.505
BEESAT 3 01 May 18:32:59 18:35:32 17° 111° (ESE) 18:38:05 437.485
LilacSat-2 01 May 18:38:37 18:42:30 77° 76° (ENE) 18:46:24 437.200
BEESAT 2 01 May 18:38:59 18:40:11 11° 109° (ESE) 18:41:24 435.950
CUTE-I 01 May 18:42:24 18:47:44 89° 256° (WSW) 18:53:05 437.470
NOAA 18 01 May 18:42:58 18:48:28 67° 258° (WSW) 18:53:57 137.9125
AUBIESAT-1 01 May 18:43:02 18:47:31 47° 66° (ENE) 18:51:55 437.475
GOMX 1 01 May 18:51:13 18:56:04 52° 71° (ENE) 19:01:14 467.674
DOVE 4 01 May 18:54:59 18:59:27 31° 66° (ENE) 19:04:03 437.250
MOZHAYETS 4 01 May 18:58:14 19:00:09 13° 300° (WNW) 19:02:04
CUBESAT XI-V 01 May 19:00:04 19:04:47 82° 283° (WNW) 19:09:29 437.345
CUTE 1.7 + AOD 2 01 May 19:10:17 19:11:37 11° 61° (ENE) 19:12:58 437.475
BRITE-PL 01 May 19:10:29 19:15:09 55° 261° (W) 19:20:16 437.365/2234.400
Cubesat XI-IV 01 May 19:26:57 19:31:52 37° 263° (W) 19:36:48 437.490
NOAA 15 01 May 19:31:06 19:35:13 23° 267° (W) 19:39:23 137.62
SEEDS 01 May 19:38:37 19:41:15 17° 64° (ENE) 19:43:55 437.485
STRAND 1 01 May 19:44:06 19:48:22 26° 94° (E) 19:52:37 437.568
COMPASS 1 01 May 19:45:04 19:47:15 14° 63° (ENE) 19:49:26 437.405
CINEMA 3 01 May 19:48:35 19:53:04 34° 68° (ENE) 19:57:33 145.822/145.860
M-CUBED/EXP-1 PRIME 01 May 19:58:05 20:02:07 27° 260° (W) 20:06:08 437.505
Cosmos 2491 01 May 20:00:09 20:08:00 38° 275° (W) 20:15:49 435.465 / 435.565
HO-68 01 May 20:05:37 20:12:40 65° 69° (ENE) 20:19:45 435.675
BEESAT 3 01 May 20:09:03 20:12:53 48° 309° (NW) 20:16:44 437.485
CANX-2 01 May 20:09:42 20:13:48 53° 73° (ENE) 20:17:55 2200.000
YUBILEINY 01 May 20:12:37 20:21:21 74° 281° (W) 20:30:06 435.215
BEESAT 2 01 May 20:13:29 20:17:27 72° 305° (NW) 20:21:28 435.950
RS-15 01 May 20:15:45 20:19:55 13° 92° (E) 20:24:08 29.354- 29.394
AAUSAT CUBESAT 2 01 May 20:15:58 20:19:15 24° 67° (ENE) 20:22:33 437.432
AUBIESAT-1 01 May 20:18:40 20:22:09 21° 262° (W) 20:25:37 437.475
Oscar 11 01 May 20:25:18 20:27:32 14° 62° (ENE) 20:29:46 145.826/435.025
CUTE-I 01 May 20:26:44 20:28:31 12° 273° (W) 20:30:18 437.470
GOMX 1 01 May 20:30:45 20:34:30 21° 270° (W) 20:38:24 467.674
DOVE 4 01 May 20:32:20 20:37:00 36° 265° (W) 20:41:52 437.250
FUNcube-1 01 May 20:34:33 20:37:10 15° 63° (ENE) 20:39:44 145.935
CUBESAT XI-V 01 May 20:40:28 20:41:23 11° 302° (WNW) 20:42:17 437.345
UWE-3 01 May 20:40:53 20:44:45 27° 67° (ENE) 20:48:35 435.000/436.395/437.385
CUTE 1.7 + AOD 2 01 May 20:42:39 20:46:52 76° 259° (WSW) 20:51:06 437.475
Cosmos 2504 01 May 20:43:28 20:50:25 49° 90° (E) 20:57:14 435.465 / 435.565
CUBEBUG 2 01 May 20:44:52 20:49:18 40° 71° (ENE) 20:53:41 437.445
AO-85 01 May 20:54:50 20:58:33 21° 37° (NE) 21:02:03 145.980
PRISM 01 May 21:00:30 21:04:10 29° 97° (E) 21:07:48 437.425
SEEDS 01 May 21:12:34 21:16:37 47° 261° (W) 21:20:39 437.485
ZACube-1 01 May 21:14:11 21:18:23 38° 70° (ENE) 21:22:32 437.345
COMPASS 1 01 May 21:18:18 21:22:22 57° 260° (W) 21:26:27 437.405
STRAND 1 01 May 21:22:54 21:27:39 40° 292° (WNW) 21:32:25 437.568
CINEMA 3 01 May 21:25:43 21:30:09 31° 265° (W) 21:34:37 145.822/145.860
AIST 2 01 May 21:34:18 21:38:21 59° 121° (ESE) 21:42:27 435.215
DELFI C3 01 May 21:39:44 21:43:23 37° 71° (ENE) 21:47:02 145.870
CANX-2 01 May 21:47:42 21:49:59 14° 270° (W) 21:52:17 2200.000
AAUSAT CUBESAT 2 01 May 21:50:58 21:54:37 30° 264° (W) 21:58:17 437.432
BEESAT 2 01 May 21:54:28 21:56:03 12° 325° (NW) 21:57:39 435.950
HO-68 01 May 21:55:10 22:00:53 25° 267° (W) 22:06:38 435.675
Oscar 11 01 May 21:58:53 22:03:10 63° 259° (W) 22:07:27 145.826/435.025
FUNcube-1 01 May 22:08:27 22:12:56 61° 259° (W) 22:17:22 145.935
YUBILEINY 01 May 22:14:49 22:19:54 16° 304° (WNW) 22:25:00 435.215
UWE-3 01 May 22:16:52 22:21:05 34° 264° (W) 22:25:16 435.000/436.395/437.385
ESTCUBE 1 01 May 22:17:29 22:18:50 11° 59° (ENE) 22:20:12 437.505/2401.250
RS-15 01 May 22:18:32 22:29:31 62° 115° (ESE) 22:41:08 29.354- 29.394
CUBEBUG 2 01 May 22:22:17 22:26:02 23° 267° (W) 22:29:46 437.445
HUMSAT D 01 May 22:28:31 22:32:42 62° 74° (ENE) 22:36:51 437.325/437.525
AO-85 01 May 22:34:48 22:39:38 71° 239° (WSW) 22:43:59 145.980
PRISM 01 May 22:35:56 22:39:23 26° 293° (WNW) 22:42:50 437.425
Cosmos 2504 01 May 22:37:43 22:44:01 31° 290° (WNW) 22:50:17 435.465 / 435.565
UNISAT 6 01 May 22:40:54 22:43:45 17° 91° (E) 22:46:32 437.425
CUBEBUG 1 01 May 22:43:16 22:45:38 14° 61° (ENE) 22:48:01 437.445
ZACube-1 01 May 22:51:15 22:54:47 22° 267° (W) 22:58:18 437.345
TIGRISAT 01 May 22:58:20 23:01:53 24° 94° (E) 23:05:22 435.000
VELOX 1 01 May 23:05:50 23:09:26 25° 66° (ENE) 23:13:03 145.980
DX 1 01 May 23:07:11 23:10:37 23° 65° (ENE) 23:14:05 434.975-435.025
AIST 2 01 May 23:14:11 23:17:12 19° 319° (NW) 23:20:14 435.215
DELFI C3 01 May 23:15:45 23:18:25 17° 268° (W) 23:21:05 145.870
UKube-1 01 May 23:15:57 23:19:22 23° 65° (ENE) 23:22:48 .
50 SAT 01 May 23:19:07 23:22:25 32° 70° (ENE) 23:25:42 437.505
ANTELSAT 01 May 23:22:11 23:26:23 45° 99° (E) 23:30:29 437.575/2403.000
PCSat 01 May 23:22:12 23:24:31 13° 32° (NNE) 23:26:49 145.827
QB50P2 01 May 23:33:38 23:35:33 13° 90° (E) 23:37:27 145.880/145.840
DUCHIFAT 1 01 May 23:35:33 23:36:50 11° 89° (E) 23:38:06 145.980
POLYITAN 1 01 May 23:35:45 23:37:42 13° 90° (E) 23:39:39 437.675
AISAT 01 May 23:36:53 23:41:12 53° 72° (ENE) 23:45:34 437.250
POPSAT HIP 1 01 May 23:38:32 23:40:39 14° 90° (E) 23:42:47 437.405
QB50P1 01 May 23:41:37 23:44:04 15° 91° (E) 23:46:30 145.935-145.965
SPROUT 01 May 23:47:56 23:51:28 25° 67° (ENE) 23:55:00 437.525
ESTCUBE 1 01 May 23:50:29 23:54:57 87° 251° (WSW) 23:59:29 437.505/2401.250
GONETS M04 02 May 00:02:28 00:09:28 27° 81° (E) 00:16:26
O/OREOS (USA 219) 02 May 00:02:35 00:05:28 16° 51° (NE) 00:08:19 437.305
HUMSAT D 02 May 00:06:58 00:08:42 12° 270° (W) 00:10:27 437.325/437.525
NANOSAT C BR1 02 May 00:16:02 00:19:54 33° 97° (E) 00:23:42 145.865
UNISAT 6 02 May 00:16:33 00:20:44 46° 289° (WNW) 00:24:49 437.425
CUBEBUG 1 02 May 00:17:04 00:21:24 64° 259° (WSW) 00:25:48 437.445
AIST 1 02 May 00:20:15 00:23:30 21° 87° (E) 00:26:48
BUGSAT 1 02 May 00:21:08 00:24:01 18° 92° (E) 00:26:51 437.445
TISAT 1 02 May 00:26:46 00:29:55 21° 65° (ENE) 00:33:06 437.305
RS-15 02 May 00:31:28 00:42:27 49° 321° (NW) 00:54:05 29.354- 29.394
TIGRISAT 02 May 00:34:45 00:38:37 32° 292° (WNW) 00:42:24 435.000
VELOX 1 02 May 00:41:43 00:45:45 34° 263° (W) 00:49:50 145.980
DX 1 02 May 00:42:36 00:46:37 36° 262° (W) 00:50:41 434.975-435.025
JAS-2 02 May 00:49:46 00:55:01 19° 87° (E) 01:00:15 435.910
UKube-1 02 May 00:51:17 00:55:14 35° 262° (W) 00:59:13 .
50 SAT 02 May 00:53:50 00:56:18 17° 267° (W) 00:58:47 437.505
Cosmos 2499 02 May 00:54:34 01:00:11 26° 83° (E) 01:05:48 435.465 / 435.565
CUSAT 1 02 May 00:55:45 00:59:57 16° 62° (ENE) 01:04:27 437.405
ANTELSAT 02 May 00:59:48 01:02:45 18° 297° (WNW) 01:05:41 437.575/2403.000
PCSat 02 May 01:03:54 01:09:14 52° 54° (NE) 01:14:30 145.827
QB50P2 02 May 01:07:33 01:11:46 60° 286° (WNW) 01:15:55 145.880/145.840
DUCHIFAT 1 02 May 01:08:47 01:13:00 67° 286° (WNW) 01:17:10 145.980
POLYITAN 1 02 May 01:09:43 01:13:54 59° 287° (WNW) 01:18:02 437.675
POPSAT HIP 1 02 May 01:12:38 01:16:49 56° 287° (WNW) 01:20:57 437.405
AISAT 02 May 01:15:17 01:18:00 16° 269° (W) 01:20:44 437.250
QB50P1 02 May 01:16:02 01:20:10 51° 288° (WNW) 01:24:15 145.935-145.965
ITUPSAT 1 02 May 01:23:14 01:26:25 18° 62° (ENE) 01:29:34 437.325
SPROUT 02 May 01:23:25 01:27:17 32° 264° (W) 01:31:12 437.525
DANDE 02 May 01:28:38 01:31:28 13° 63° (ENE) 01:34:33 436.750
SWISSCUBE 02 May 01:32:32 01:36:19 24° 64° (ENE) 01:40:05 437.505
O/OREOS (USA 219) 02 May 01:40:51 01:45:21 65° 250° (WSW) 01:49:47 437.305
NANOSAT C BR1 02 May 01:52:06 01:55:28 23° 294° (WNW) 01:58:48 145.865
BUGSAT 1 02 May 01:55:37 01:59:35 42° 290° (WNW) 02:03:31 437.445
GONETS M04 02 May 01:56:40 02:05:29 70° 281° (W) 02:14:20
AIST 1 02 May 01:56:57 02:00:52 34° 285° (WNW) 02:04:52
TISAT 1 02 May 02:01:21 02:05:20 39° 262° (W) 02:09:21 437.305
BEESAT 02 May 02:05:00 02:09:30 43° 70° (ENE) 02:14:00 436.000
Gurwin Techsat 1B 02 May 02:27:05 02:31:09 22° 93° (E) 02:35:11 435.225
JAS-2 02 May 02:33:05 02:40:53 88° 105° (ESE) 02:48:45 435.910
CUSAT 1 02 May 02:35:56 02:43:00 73° 78° (ENE) 02:51:03 437.405
Oscar 19 02 May 02:40:28 02:45:41 67° 102° (ESE) 02:50:51 437.125/150
Cosmos 2499 02 May 02:45:50 02:52:46 56° 283° (WNW) 02:59:46 435.465 / 435.565
PCSat 02 May 02:47:56 02:52:17 25° 252° (WSW) 02:56:36 145.827
BEESAT 3 02 May 02:48:03 02:50:58 19° 42° (NE) 02:53:53 437.485
MOZHAYETS 4 02 May 02:49:07 02:50:07 11° 58° (ENE) 02:51:07
RS-15 02 May 02:49:10 02:58:51 28° 354° (N) 03:08:52 29.354- 29.394
KKS-1 02 May 02:51:22 02:54:21 18° 63° (ENE) 02:57:22 437.445
BEESAT 2 02 May 02:53:37 02:56:01 15° 38° (NE) 02:58:23 435.950
ITUPSAT 1 02 May 02:59:07 03:03:48 58° 259° (W) 03:08:31 437.325
DANDE 02 May 03:08:45 03:15:04 67° 79° (ENE) 03:22:56 436.750
SWISSCUBE 02 May 03:09:25 03:13:53 40° 262° (W) 03:18:23 437.505
STARS 02 May 03:11:19 03:13:53 15° 61° (ENE) 03:16:28 437.465
BEESAT 02 May 03:43:49 03:47:27 22° 267° (W) 03:51:07 436.000
ITAMSAT 1 02 May 03:56:45 04:01:53 59° 101° (E) 04:06:59 435.822/435.867
GONETS M04 02 May 03:59:19 04:04:12 16° 305° (NW) 04:09:06
Gurwin Techsat 1B 02 May 04:06:14 04:11:23 52° 290° (WNW) 04:16:30 435.225
AO-7 02 May 04:13:56 04:21:20 34° 97° (E) 04:28:42 29.400- 29.500
AIST 2 02 May 04:17:53 04:19:05 11° 32° (NNE) 04:20:18 435.215
CUSAT 1 02 May 04:19:04 04:24:41 25° 273° (W) 04:30:50 437.405
JAS-2 02 May 04:19:17 04:24:59 23° 303° (WNW) 04:30:48 435.910
Oscar 19 02 May 04:21:02 04:24:27 18° 300° (WNW) 04:27:53 437.125/150
MOZHAYETS 4 02 May 04:21:58 04:26:32 87° 79° (ENE) 04:31:08
BEESAT 3 02 May 04:25:07 04:28:58 52° 240° (WSW) 04:32:47 437.485
KKS-1 02 May 04:26:09 04:30:32 52° 260° (W) 04:34:57 437.445
YUBILEINY 02 May 04:26:59 04:30:43 13° 53° (NE) 04:34:25 435.215
CUBESAT XI-V 02 May 04:30:01 04:32:19 14° 60° (ENE) 04:34:37 437.345
BEESAT 2 02 May 04:30:23 04:34:23 79° 237° (WSW) 04:38:21 435.950
STARS 02 May 04:45:23 04:49:46 61° 259° (W) 04:54:11 437.465
DANDE 02 May 04:52:28 04:57:40 25° 271° (W) 05:03:41 436.750
RS-15 02 May 05:05:10 05:16:08 37° 28° (NNE) 05:27:15 29.354- 29.394
ITAMSAT 1 02 May 05:37:13 05:40:55 20° 299° (WNW) 05:44:37 435.822/435.867
HORYU 2 02 May 05:43:06 05:47:24 47° 100° (E) 05:51:39 437.375
AIST 2 02 May 05:54:21 05:58:28 59° 53° (NE) 06:02:33 435.215
CUBESAT XI-V 02 May 06:04:31 06:09:06 73° 258° (WSW) 06:13:44 437.345
NOAA 15 02 May 06:05:04 06:08:17 16° 90° (E) 06:11:29 137.62
AO-7 02 May 06:06:21 06:14:28 59° 296° (WNW) 06:22:34 29.400- 29.500
YUBILEINY 02 May 06:21:02 06:29:40 61° 77° (ENE) 06:38:15 435.215
Cosmos 2504 02 May 06:33:43 06:38:57 20° 63° (ENE) 06:44:21 435.465 / 435.565
GOMX 1 02 May 06:52:58 06:56:19 16° 88° (E) 06:59:37 467.674
CUTE-I 02 May 06:58:20 07:03:06 32° 96° (E) 07:07:50 437.470
STRAND 1 02 May 07:01:09 07:05:57 43° 69° (ENE) 07:10:46 437.568
NOAA 18 02 May 07:03:39 07:08:54 46° 100° (E) 07:14:07 137.9125
Cosmos 2491 02 May 07:05:24 07:13:54 56° 90° (E) 07:22:27 435.465 / 435.565
BRITE-PL 02 May 07:13:18 07:18:51 49° 98° (E) 07:24:17 437.365/2234.400
RS-15 02 May 07:18:13 07:30:35 86° 56° (NE) 07:42:57 29.354- 29.394
HORYU 2 02 May 07:20:33 07:23:37 19° 297° (WNW) 07:26:40 437.375
SO-50 02 May 07:28:35 07:33:02 35° 116° (ESE) 07:37:30 436.795
AIST 2 02 May 07:34:10 07:36:30 15° 250° (WSW) 07:38:48 435.215
M-CUBED/EXP-1 PRIME 02 May 07:37:10 07:39:51 18° 96° (E) 07:42:24 437.505
Cubesat XI-IV 02 May 07:42:06 07:47:28 79° 104° (ESE) 07:52:47 437.490
NOAA 15 02 May 07:43:16 07:48:35 70° 287° (WNW) 07:53:51 137.62
LilacSat-2 02 May 07:44:56 07:48:46 83° 283° (WNW) 07:52:33 437.200
PRISM 02 May 07:51:30 07:54:52 26° 67° (ENE) 07:58:17 437.425
AUBIESAT-1 02 May 07:56:11 07:59:20 23° 99° (E) 08:02:18 437.475
AO-7 02 May 08:01:13 08:05:32 15° 317° (NW) 08:09:52 29.400- 29.500
ISS 02 May 08:11:05 08:14:11 41° 141° (SE) 08:17:18 145.825
YUBILEINY 02 May 08:18:39 08:25:53 31° 278° (W) 08:33:08 435.215
Cosmos 2504 02 May 08:25:41 08:33:15 87° 264° (W) 08:41:23 435.465 / 435.565
CUTE 1.7 + AOD 2 02 May 08:27:14 08:29:57 16° 91° (E) 08:32:39 437.475
GOMX 1 02 May 08:29:28 08:34:57 71° 286° (WNW) 08:40:12 467.674
DOVE 4 02 May 08:29:38 08:34:47 63° 100° (E) 08:39:39 437.250
CUTE-I 02 May 08:38:20 08:43:08 35° 293° (WNW) 08:47:55 437.470
STRAND 1 02 May 08:41:12 08:45:18 24° 266° (W) 08:49:25 437.568
NOAA 18 02 May 08:44:49 08:49:18 27° 297° (WNW) 08:53:46 137.9125
BRITE-PL 02 May 08:52:17 08:56:59 27° 296° (WNW) 09:01:40 437.365/2234.400
SEEDS 02 May 08:55:20 08:58:46 24° 94° (E) 09:02:12 437.485
COMPASS 1 02 May 09:00:22 09:03:28 20° 93° (E) 09:06:33 437.405
